Погода в Козьмодемьяновке

Россия / Тамбовская область     52°58′04″N   42°40′50″E
темп.,
°C
ветер,
м/с
пор.,
м/с
влажн.,
%
обл.,
%
осадки,
мм/ч
давл.,
гПа
погр.,
м
19 апреля, пн
пн1900:00+8всв2483100 0.1 101987
03:00+8в498585 0.6 1018321
06:00+8всв5886100 1.6 1017374
09:00+6всв61091100 5.0 1018428
12:00+7в6990100 7.1 1019694
15:00+7в71088100 7.7 1019892
18:00+7в61083100 0.8 1019964
21:00+7всв51175100 0.9 1019443
20 апреля, вт
вт2000:00+7всв61177100 0.2 1019693
03:00+5в71291100 0.9 1019712
06:00+4в71390100 1.3 1019723
09:00+4в91590100 2.1 1019693
12:00+4вюв81588100 0.1 1019755
15:00+3вюв81690100 2.4 1017801
18:00+4вюв101989100 3.6 1014864
21:00+5вюв132489100 10.6 10091073
21 апреля, ср
ср2100:00+7юв132390100 1.8 10071121
03:00+7юв112093100 2.3 10051013
06:00+8юв111892100 1.9 1005918
09:00+8ю71393100 4.2 1007796
12:00+10юз697299 0.4 10111127
15:00+10ююз587899 0.5 1013924
18:00+10ю367963 0.2 1014255
21:00+8ю239088 0.9 101537
22 апреля, чт
чт2200:00+7з119434 0.2 101612
03:00+6ююз349594 0.3 101768
06:00+5ююз359477 0.0 1019116
09:00+10ююз5768100 0.0 1019651
12:00+12ююз676296 0.3 10201461
15:00+13ююз575781 0.5 10201593
18:00+12ююз246773 0.1 1021155
21:00+9ююз22745 0.1 102219
23 апреля, пт
пт2300:00+8ю337611 0.0 102231
03:00+8ю3473100 0.0 102246
06:00+9ю3775100 0.0 1023143
09:00+12ю486584 0.0 1023384
12:00+16юз454464 0.0 10222111
15:00+16ю554896 0.0 10221424
18:00+14ююз226075 0.3 102131
21:00+11ююв34706 0.3 102147